Wilson Lake Weather Center

Moon Phase Calendar



Wilson Lake Water Level
Online Cameras

 


      

Current Conditions in Killen
5/18/2022 1:37:33 AM

61°F
Feels Like 61
Clear
Humidity
91%
Pressure
30"
Wind
0
Dew Point
58°F
UV Index
0/10 (Low)
Visibility
6 mi

Hourly Forecast

Date & Time Wed, May 18
1:00 AM
Wed, May 18
2:00 AM
Wed, May 18
3:00 AM
Wed, May 18
4:00 AM
Wed, May 18
5:00 AM
Wed, May 18
6:00 AM
Wed, May 18
7:00 AM
Wed, May 18
8:00 AM
Wed, May 18
9:00 AM
Wed, May 18
10:00 AM
Wed, May 18
11:00 AM
Wed, May 18
12:00 PM
Wed, May 18
1:00 PM
Wed, May 18
2:00 PM
Wed, May 18
3:00 PM
Wed, May 18
4:00 PM
Wed, May 18
5:00 PM
Wed, May 18
6:00 PM
Wed, May 18
7:00 PM
Wed, May 18
8:00 PM
Wed, May 18
9:00 PM
Wed, May 18
10:00 PM
Wed, May 18
11:00 PM
Thu, May 19
12:00 AM
Thu, May 19
1:00 AM
Thu, May 19
2:00 AM
Thu, May 19
3:00 AM
Thu, May 19
4:00 AM
Thu, May 19
5:00 AM
Thu, May 19
6:00 AM
Thu, May 19
7:00 AM
Thu, May 19
8:00 AM
Thu, May 19
9:00 AM
Thu, May 19
10:00 AM
Thu, May 19
11:00 AM
Thu, May 19
12:00 PM
Thu, May 19
1:00 PM
Thu, May 19
2:00 PM
Thu, May 19
3:00 PM
Thu, May 19
4:00 PM
Thu, May 19
5:00 PM
Thu, May 19
6:00 PM
Thu, May 19
7:00 PM
Thu, May 19
8:00 PM
Thu, May 19
9:00 PM
Thu, May 19
10:00 PM
Thu, May 19
11:00 PM
Fri, May 20
12:00 AM
Condition
Clear

Clear

Clear

Clouds

Clouds

Clouds

Clouds

Clear

Clouds

Clear

Clear

Clear

Clear

Clear

Clouds

Clouds

Clouds

Clouds

Clouds

Clouds

Clouds

Clouds

Clouds

Clouds

Clouds

Clear

Clear

Clear

Clear

Clear

Clouds

Clouds

Clouds

Clouds

Clouds

Clouds

Clouds

Clouds

Clouds

Clouds

Clouds

Clouds

Clouds

Clouds

Clear

Clear

Clear

Clear
Temperature 61°F61°F61°F60°F60°F60°F62°F67°F72°F76°F79°F82°F84°F86°F87°F87°F86°F84°F80°F76°F74°F73°F71°F69°F69°F68°F68°F67°F67°F67°F70°F74°F78°F80°F83°F85°F87°F88°F89°F89°F87°F84°F78°F75°F73°F72°F71°F70°F
Feels Like 61°F61°F61°F60°F60°F59°F62°F67°F71°F76°F79°F83°F85°F88°F90°F92°F90°F89°F80°F77°F75°F73°F72°F70°F69°F69°F68°F68°F67°F68°F71°F75°F78°F83°F86°F87°F88°F89°F91°F91°F89°F86°F79°F75°F73°F72°F71°F70°F
Cloudiness 8%0%8%15%19%21%27%7%11%10%10%8%7%0%12%19%39%44%53%67%60%73%76%77%65%0%0%2%3%9%15%18%29%42%35%28%24%77%89%92%75%65%57%14%10%9%7%5%
Visibility 6 mi6 mi6 mi6 mi6 mi6 mi6 mi6 mi6 mi6 mi6 mi6 mi6 mi6 mi6 mi6 mi6 mi6 mi6 mi6 mi6 mi6 mi6 mi6 mi6 mi6 mi6 mi6 mi6 mi6 mi6 mi6 mi6 mi6 mi6 mi6 mi6 mi6 mi6 mi6 mi6 mi6 mi6 mi6 mi6 mi6 mi6 mi6 mi
Precipitation 0%0%0%0%0%0%0%0%0%0%0%0%0%0%0%0%0%0%0%0%0%3%0%0%0%0%0%0%0%0%0%0%0%0%0%0%0%0%0%0%0%0%0%0%0%0%0%0%
Humidity 86%91%86%83%79%76%75%68%62%55%53%53%52%52%51%56%59%65%74%77%79%80%82%83%82%81%81%83%85%86%83%75%69%64%58%51%45%42%45%46%49%57%66%64%64%67%70%72%
Dew Point 57°F58°F56°F55°F54°F52°F54°F56°F58°F59°F61°F63°F65°F66°F67°F70°F70°F71°F70°F68°F66°F66°F65°F64°F63°F62°F62°F62°F62°F62°F64°F66°F66°F67°F67°F65°F63°F62°F65°F66°F65°F67°F66°F62°F60°F60°F60°F61°F
Pressure 30"30"30"30"29.97"30"30"30"30"30"30"29.97"29.94"29.88"29.85"29.85"29.83"29.83"29.83"29.85"29.85"29.88"29.85"29.85"29.85"29.85"29.85"29.85"29.85"29.85"29.85"29.88"29.88"29.88"29.88"29.85"29.85"29.83"29.8"29.77"29.77"29.77"29.77"29.77"29.8"29.8"29.8"29.8"
Wind Speed 3.1 mph3.3 mph5.1 mph6.1 mph6.2 mph6.2 mph5 mph7 mph9.2 mph7.6 mph9.1 mph10.8 mph10.5 mph12.1 mph12.4 mph11.7 mph10.6 mph8 mph6 mph6 mph6.5 mph6.6 mph7 mph6.5 mph6.7 mph6.7 mph6.6 mph6.7 mph7.4 mph7 mph7.1 mph9.1 mph10.9 mph11.6 mph11.9 mph12.3 mph13 mph12.7 mph11.4 mph11.4 mph11.4 mph9.8 mph8.7 mph8.4 mph7.4 mph6.9 mph6.8 mph7 mph
Wind
Direction
164°
SSE
165°
SSE
137°
SE
145°
SE
160°
SSE
156°
SSE
162°
SSE
167°
SSE
175°
S
195°
SSW
207°
SSW
208°
SSW
211°
SSW
214°
SW
221°
SW
240°
WSW
229°
SW
209°
SSW
223°
SW
245°
WSW
252°
WSW
242°
WSW
226°
SW
228°
SW
228°
SW
232°
SW
240°
WSW
231°
SW
209°
SSW
216°
SW
226°
SW
231°
SW
243°
WSW
243°
WSW
236°
SW
228°
SW
228°
SW
226°
SW
228°
SW
227°
SW
224°
SW
214°
SW
208°
SSW
207°
SSW
209°
SSW
206°
SSW
208°
SSW
196°
SSW

Daily Forecast

Date High Low Precip. Humidity
Today
May 18

Clear
87 °F
60 °F
3%
53%
Thursday
May 19

Clouds
89 °F
67 °F
0%
51%
Friday
May 20

Clear
89 °F
70 °F
0%
45%
Saturday
May 21

Rain
91 °F
70 °F
96%
47%
Sunday
May 22

Rain
73 °F
66 °F
100%
90%
Monday
May 23

Rain
75 °F
64 °F
44%
79%
Tuesday
May 24

Rain
84 °F
62 °F
97%
67%
Wednesday
May 25

Rain
85 °F
67 °F
100%
60%
Thursday
May 26

Rain
85 °F
65 °F
100%
59%
Friday
May 27

Clear
88 °F
68 °F
0%
58%
Saturday
May 28

Clear
90 °F
66 °F
0%
51%
Sunday
May 29

Rain
87 °F
73 °F
86%
56%
Monday
May 30

Rain
90 °F
71 °F
36%
46%
Tuesday
May 31

Clouds
90 °F
71 °F
0%
50%
Wednesday
Jun 1

Clear
92 °F
70 °F
0%
44%
Thursday
Jun 2

Clear
92 °F
71 °F
0%
45%

Temperature 8-14 Day Outlook



Precipitation 8-14 Day Outlook




Quick Links
Wilson Lake News
Wilson Lake Photos
Wilson Lake Videos




About Us
Contact Us
Site Map
Search Site
Advertise With Us
   
www.WilsonLake.info
THE WILSON LAKE WEBSITE

Copyright 2022, Lakes Online
Privacy    |    Legal